User: anonymous   Login
Location: İstanbul
(41.0082°N, 28.9784°E)
Time: 09:46:04
(UTC+03:00)
Language:

EO-88 - Orbit

View from above orbital plane
View from above orbital plane
View from above satellite
View from above satellite

Ground track
Ground track

The orbit data is extracted from the following two-line orbital elements,

1 42017U 17008BX  21298.17629679  .00004094  00000-0  14749-3 0  9994
2 42017  97.3021   3.4269 0006117  24.2797 335.8730 15.29107603261077
Epoch (UTC): 25 October 2021 04:13:52
Eccentricity: 0.0006117
inclination: 97.3021°
perigee height: 474 km
apogee height: 482 km
right ascension of ascending node: 3.4269°
argument of perigee: 24.2797°
revolutions per day: 15.29107603
mean anomaly at epoch: 335.8730°
orbit number at epoch: 26107

The dashed part of the orbit path shows where the satellite is in the earth's shadow,  

DLR